When you browse on this site, cookies collect data to enhance your experience and personalize the content and advertising you see.
Visit our Privacy Policy to learn more. By continuing to use the site, you agree to this use of cookies and data.
  • In Austria
  • List of Countries
  • For 7 days
  • Water Temperature
  • Weather Map
  • News
  • Weather Widgets
  • user-avatar
    Login

    Hourly Weather Lopez

    Today, 21 November, Thursday

    Time Temperature Precipitation Wind Pressure Humidity
    00:00 +16°C° 1.4 mm 0 mps 624 mmHg 97%
    01:00 +15°C° 1.4 mm 0 mps 623 mmHg 97%
    02:00 +15°C° 2.2 mm 0 mps 623 mmHg 97%
    03:00 +15°C° 2.2 mm 0 mps 623 mmHg 96%
    04:00 +15°C° 2.2 mm 0 mps 623 mmHg 96%
    05:00 +15°C° 0.9 mm 0 mps 623 mmHg 96%
    06:00 +15°C° 0.9 mm 0 mps 624 mmHg 96%
    07:00 +16°C° 0.9 mm 0 mps 624 mmHg 95%
    08:00 +17°C° 0.2 mm 0 mps 625 mmHg 90%
    09:00 +21°C° 0.2 mm 1 mps 625 mmHg 84%
    10:00 +22°C° 0.2 mm 1 mps 626 mmHg 79%
    11:00 +22°C° 0.8 mm 1 mps 625 mmHg 81%
    12:00 +22°C° 0.8 mm 1 mps 625 mmHg 83%
    13:00 +22°C° 0.8 mm 1 mps 624 mmHg 85%
    14:00 +22°C° 1.3 mm 1 mps 623 mmHg 87%
    15:00 +21°C° 1.3 mm 1 mps 623 mmHg 90%
    16:00 +21°C° 1.3 mm 1 mps 622 mmHg 92%
    17:00 +20°C° 0.9 mm 1 mps 622 mmHg 94%
    18:00 +17°C° 0.9 mm 0 mps 623 mmHg 95%
    19:00 +16°C° 0.9 mm 0 mps 623 mmHg 97%
    20:00 +16°C° 0.4 mm 0 mps 623 mmHg 97%
    21:00 +16°C° 0.4 mm 0 mps 623 mmHg 97%
    22:00 +15°C° 0.4 mm 0 mps 624 mmHg 97%
    23:00 +15°C° 0.4 mm 0 mps 623 mmHg 97%

    Tomorrow, 22 November, Friday

    Time Temperature Precipitation Wind Pressure Humidity
    00:00 +15°C° 0.4 mm 0 mps 623 mmHg 98%
    01:00 +15°C° 0.4 mm 0 mps 623 mmHg 98%
    02:00 +15°C° 0.7 mm 0 mps 623 mmHg 97%
    03:00 +15°C° 0.7 mm 0 mps 622 mmHg 97%
    04:00 +15°C° 0.7 mm 0 mps 622 mmHg 97%
    05:00 +15°C° 0 mm 0 mps 623 mmHg 96%
    06:00 +15°C° 0 mm 0 mps 623 mmHg 96%
    07:00 +15°C° 0 mm 0 mps 624 mmHg 95%
    08:00 +17°C° 0.2 mm 0 mps 624 mmHg 91%
    09:00 +20°C° 0.2 mm 1 mps 625 mmHg 88%
    10:00 +21°C° 0.2 mm 1 mps 626 mmHg 84%
    11:00 +21°C° 1.2 mm 1 mps 625 mmHg 85%
    12:00 +21°C° 1.2 mm 1 mps 625 mmHg 87%
    13:00 +21°C° 1.2 mm 1 mps 624 mmHg 88%
    14:00 +21°C° 1.5 mm 1 mps 623 mmHg 90%
    15:00 +21°C° 1.5 mm 1 mps 623 mmHg 91%
    16:00 +20°C° 1.5 mm 1 mps 622 mmHg 93%
    17:00 +19°C° 0.7 mm 1 mps 622 mmHg 94%
    18:00 +16°C° 0.7 mm 0 mps 623 mmHg 96%
    19:00 +16°C° 0.7 mm 0 mps 623 mmHg 97%
    20:00 +15°C° 0.1 mm 0 mps 623 mmHg 97%
    21:00 +15°C° 0.1 mm 0 mps 623 mmHg 97%
    22:00 +15°C° 0.1 mm 0 mps 624 mmHg 97%
    23:00 +15°C° 0 mm 0 mps 623 mmHg 97%

    Day after tomorrow, 23 November, Saturday

    Time Temperature Precipitation Wind Pressure Humidity
    00:00 +15°C° 0 mm 0 mps 623 mmHg 97%
    01:00 +14°C° 0 mm 0 mps 623 mmHg 97%
    02:00 +14°C° 0 mm 0 mps 622 mmHg 96%
    03:00 +14°C° 0 mm 0 mps 622 mmHg 96%
    04:00 +14°C° 0 mm 0 mps 622 mmHg 96%
    05:00 +15°C° 0 mm 0 mps 623 mmHg 95%
    06:00 +15°C° 0 mm 0 mps 623 mmHg 94%
    07:00 +15°C° 0 mm 0 mps 624 mmHg 94%
    08:00 +17°C° 0.1 mm 0 mps 625 mmHg 86%
    09:00 +19°C° 0.1 mm 0 mps 625 mmHg 79%
    10:00 +23°C° 0.1 mm 1 mps 626 mmHg 71%
    11:00 +23°C° 0.9 mm 1 mps 626 mmHg 76%
    12:00 +23°C° 0.9 mm 1 mps 625 mmHg 81%
    13:00 +22°C° 0.9 mm 1 mps 624 mmHg 85%
    14:00 +21°C° 1.4 mm 1 mps 623 mmHg 88%
    15:00 +21°C° 1.4 mm 1 mps 623 mmHg 90%
    16:00 +20°C° 1.4 mm 1 mps 622 mmHg 92%
    17:00 +19°C° 0.5 mm 1 mps 622 mmHg 94%
    18:00 +16°C° 0.5 mm 0 mps 623 mmHg 95%
    19:00 +15°C° 0.5 mm 0 mps 623 mmHg 97%
    20:00 +15°C° 0 mm 0 mps 623 mmHg 97%
    21:00 +15°C° 0 mm 0 mps 623 mmHg 97%
    22:00 +15°C° 0 mm 0 mps 624 mmHg 96%
    23:00 +15°C° 0 mm 0 mps 623 mmHg 96%

    24 November, Sunday

    Time Temperature Precipitation Wind Pressure Humidity
    00:00 +14°C° 0 mm 0 mps 623 mmHg 96%
    01:00 +14°C° 0 mm 0 mps 623 mmHg 96%
    02:00 +14°C° 0 mm 0 mps 622 mmHg 96%
    03:00 +14°C° 0 mm 0 mps 622 mmHg 96%
    04:00 +14°C° 0 mm 0 mps 622 mmHg 95%
    05:00 +14°C° 0 mm 0 mps 622 mmHg 94%
    06:00 +15°C° 0 mm 0 mps 623 mmHg 93%
    07:00 +15°C° 0 mm 0 mps 623 mmHg 92%
    08:00 +17°C° 0 mm 0 mps 624 mmHg 84%
    09:00 +20°C° 0 mm 0 mps 625 mmHg 75%
    10:00 +24°C° 0 mm 1 mps 626 mmHg 67%
    11:00 +24°C° 0.4 mm 1 mps 625 mmHg 71%
    12:00 +23°C° 0.4 mm 1 mps 624 mmHg 75%
    13:00 +23°C° 0.4 mm 1 mps 624 mmHg 79%
    14:00 +23°C° 1.1 mm 1 mps 623 mmHg 82%
    15:00 +22°C° 1.1 mm 1 mps 622 mmHg 86%
    16:00 +21°C° 1.1 mm 1 mps 622 mmHg 89%
    17:00 +20°C° 0.6 mm 1 mps 622 mmHg 92%
    18:00 +17°C° 0.6 mm 0 mps 622 mmHg 94%
    19:00 +16°C° 0.6 mm 0 mps 622 mmHg 97%
    20:00 +16°C° 0.1 mm 0 mps 622 mmHg 97%
    21:00 +16°C° 0.1 mm 0 mps 623 mmHg 97%
    22:00 +16°C° 0.1 mm 0 mps 623 mmHg 97%
    23:00 +16°C° 0 mm 0 mps 623 mmHg 97%

    25 November, Monday

    Time Temperature Precipitation Wind Pressure Humidity
    00:00 +15°C° 0 mm 0 mps 623 mmHg 98%
    01:00 +15°C° 0 mm 0 mps 622 mmHg 98%
    02:00 +15°C° 0 mm 0 mps 622 mmHg 98%
    03:00 +15°C° 0 mm 0 mps 622 mmHg 98%
    04:00 +15°C° 0 mm 0 mps 622 mmHg 98%
    05:00 +15°C° 0 mm 0 mps 622 mmHg 97%
    06:00 +16°C° 0 mm 0 mps 622 mmHg 97%
    07:00 +16°C° 0 mm 0 mps 623 mmHg 96%
    08:00 +18°C° 0.1 mm 0 mps 624 mmHg 88%
    09:00 +20°C° 0.1 mm 0 mps 624 mmHg 80%
    10:00 +24°C° 0.1 mm 1 mps 625 mmHg 72%
    11:00 +24°C° 0.3 mm 1 mps 624 mmHg 74%
    12:00 +24°C° 0.3 mm 1 mps 623 mmHg 76%
    13:00 +24°C° 0.3 mm 1 mps 623 mmHg 78%
    14:00 +23°C° 1.2 mm 1 mps 622 mmHg 82%
    15:00 +22°C° 1.2 mm 1 mps 621 mmHg 86%
    16:00 +22°C° 1.2 mm 1 mps 621 mmHg 89%
    17:00 +21°C° 0.5 mm 1 mps 621 mmHg 92%
    18:00 +20°C° 0.5 mm 1 mps 621 mmHg 94%
    19:00 +17°C° 0.5 mm 0 mps 621 mmHg 97%
    20:00 +17°C° 0.1 mm 0 mps 622 mmHg 97%
    21:00 +16°C° 0.1 mm 0 mps 622 mmHg 97%
    22:00 +16°C° 0.1 mm 0 mps 622 mmHg 97%
    23:00 +16°C° 0.1 mm 0 mps 622 mmHg 97%

    26 November, Tuesday

    Time Temperature Precipitation Wind Pressure Humidity
    00:00 +16°C° 0.1 mm 0 mps 622 mmHg 97%
    01:00 +16°C° 0.1 mm 0 mps 622 mmHg 97%
    02:00 +16°C° 0.2 mm 0 mps 621 mmHg 97%
    03:00 +16°C° 0.2 mm 0 mps 621 mmHg 97%
    04:00 +15°C° 0.2 mm 0 mps 621 mmHg 97%
    05:00 +16°C° 0.1 mm 0 mps 621 mmHg 96%
    06:00 +16°C° 0.1 mm 0 mps 622 mmHg 95%
    07:00 +16°C° 0.1 mm 0 mps 622 mmHg 94%
    08:00 +18°C° 0.1 mm 0 mps 623 mmHg 89%
    09:00 +21°C° 0.1 mm 1 mps 624 mmHg 83%
    10:00 +23°C° 0.1 mm 1 mps 625 mmHg 78%
    11:00 +23°C° 1 mm 1 mps 624 mmHg 79%
    12:00 +23°C° 1 mm 1 mps 623 mmHg 81%
    13:00 +23°C° 1 mm 1 mps 623 mmHg 83%
    14:00 +23°C° 1.5 mm 1 mps 622 mmHg 85%
    15:00 +22°C° 1.5 mm 1 mps 622 mmHg 87%
    16:00 +22°C° 1.5 mm 1 mps 621 mmHg 89%
    17:00 +21°C° 0.7 mm 1 mps 621 mmHg 91%
    18:00 +20°C° 0.7 mm 1 mps 621 mmHg 94%
    19:00 +19°C° 0.7 mm 1 mps 621 mmHg 96%
    20:00 +18°C° 0.1 mm 1 mps 622 mmHg 96%
    21:00 +18°C° 0.1 mm 1 mps 622 mmHg 96%
    22:00 +16°C° 0.1 mm 0 mps 623 mmHg 96%
    23:00 +16°C° 0.1 mm 0 mps 622 mmHg 96%
    Show more